Meath Environmental Platform

Observations for Trim Market St

Time AQI Temp °C Hum % Pres Pa CO μg/m³ H₂S μg/m³ NO μg/m³ NO₂ μg/m³ O₃ μg/m³ SO₂ μg/m³ PM1 μg/m³ PM2.5 μg/m³ PM10 μg/m³
Sunday 12 July 2026
02:51 1 18.5 77 17,171 0.05 0 0 4.48 12.34 0 9.26 11.27 16.87
02:44 1 18.5 77 20,503 0.04 0 0 4.21 12.55 0 8.55 9.86 13.96
02:39 1 18.5 77 21,239 0.04 0 0 2.53 13.13 0 7.84 9.4 13.39
02:38 1 18.5 77 21,361 0.05 0 0 2.53 11.74 0 7.13 8.44 12.8
02:37 1 18.6 77 21,476 0.04 0 0 1.7 13.9 0 7.13 10.35 16.32
02:35 1 18.6 77 22,042 0.05 0 0 4 9.77 0 8.55 10.35 15.73
02:34 1 18.6 77 22,346 0.04 0 0 2.51 10.71 0 8.55 10.83 16.33
02:33 1 18.6 77 22,566 0.04 0 0 3.3 10.59 0 8.55 9.87 15.73
02:32 1 18.6 77 22,755 0.04 0 0 3.01 11.54 0 6.41 9.4 13.39
02:31 1 18.6 77 22,946 0.05 0 0 3.51 15.48 0 8.55 8.93 12.81
02:29 1 18.6 77 23,636 0.05 0 0 3.22 11.93 0 8.55 9.89 13.99
02:28 1 18.6 77 23,946 0.05 0 0 4.02 11.29 0 7.84 9.41 13.4
02:23 1 18.7 77 24,829 0.03 0 0 2.61 12.02 0 7.84 9.89 13.99
02:21 1 18.7 76 25,258 0.04 0 0 3.32 10.57 0 8.55 9.9 15.77
02:15 1 18.7 76 25,982 0.04 0 0 3.73 8.12 0 4.99 7.52 11.65
02:11 1 18.8 76 26,436 0.09 0 1.85 5.42 11.79 0 8.55 10.39 14.6
02:09 1 18.8 76 26,522 0.1 0 4.16 4.52 3.99 0 8.55 9.41 12.84
02:08 1 18.8 76 26,826 0.04 0 0 6.22 14.25 0 7.13 10.39 15.78
02:07 1 18.8 76 27,194 0.03 0 0 3.52 7.68 0 8.55 11.34 15.78
02:06 1 18.8 76 27,420 0.03 0 0 0.83 10.33 0 7.13 7.53 12.25